KLM1337 EHAM-EPWR

Flight info

Callsign KLM1337
Flight time 1h 15m
Altitude 37000
Route ARNEM L620 HMM DCT GOBAX DCT BEBKU DCT LASIS Z419 VAGNI
Aircraft E190/M-SDE3GILORVW/S

Departure

Time 2026-04-27 17:02
Airport Amsterdam Airport Schiphol (EHAM)

Arrival

Time 2026-04-27 18:18
Airport Copernicus Wrocław Airport (EPWR)
Time Latitude Longitude Altitude Speed Heading
2026-04-27 16:38 52.30390 4.76155 -2 ft 0 kts 58°
2026-04-27 16:47 52.30387 4.76147 -2 ft 2 kts 58°
2026-04-27 16:47 52.30378 4.76124 -2 ft 2 kts 58°
2026-04-27 16:47 52.30370 4.76100 -2 ft 2 kts 104°
2026-04-27 16:48 52.30377 4.76082 -2 ft 0 kts 147°
2026-04-27 16:50 52.30376 4.76083 -2 ft 1 kts 147°
2026-04-27 16:50 52.30363 4.76097 -2 ft 4 kts 147°
2026-04-27 16:51 52.30334 4.76126 -2 ft 6 kts 149°
2026-04-27 16:51 52.30290 4.76170 -2 ft 9 kts 147°
2026-04-27 16:51 52.30231 4.76230 -2 ft 11 kts 152°
2026-04-27 16:51 52.30163 4.76184 -2 ft 12 kts 232°
2026-04-27 16:52 52.30114 4.76051 -2 ft 15 kts 239°
2026-04-27 16:52 52.30055 4.75898 -2 ft 17 kts 237°
2026-04-27 16:52 52.29988 4.75726 -2 ft 19 kts 238°
2026-04-27 16:52 52.29914 4.75531 -2 ft 21 kts 238°
2026-04-27 16:53 52.29855 4.75378 -2 ft 14 kts 237°
2026-04-27 16:53 52.29838 4.75213 -2 ft 16 kts 288°
2026-04-27 16:53 52.29911 4.75066 -2 ft 18 kts 312°
2026-04-27 16:53 52.29996 4.74909 -2 ft 19 kts 311°
2026-04-27 16:54 52.30087 4.74740 1 ft 19 kts 311°
2026-04-27 16:54 52.30164 4.74598 9 ft 16 kts 311°
2026-04-27 16:54 52.30241 4.74456 9 ft 18 kts 312°
2026-04-27 16:54 52.30332 4.74283 -3 ft 25 kts 311°
2026-04-27 16:55 52.30456 4.74196 -2 ft 20 kts
2026-04-27 16:55 52.30602 4.74209 -2 ft 21 kts
2026-04-27 16:55 52.30754 4.74222 -2 ft 22 kts
2026-04-27 16:55 52.30914 4.74238 -2 ft 23 kts
2026-04-27 16:56 52.31081 4.74255 -2 ft 24 kts
2026-04-27 16:56 52.31252 4.74270 -2 ft 25 kts
2026-04-27 16:56 52.31430 4.74286 -2 ft 26 kts
2026-04-27 16:56 52.31612 4.74303 -2 ft 27 kts
2026-04-27 16:57 52.31800 4.74322 -2 ft 27 kts
2026-04-27 16:57 52.31906 4.74332 -2 ft 18 kts
2026-04-27 16:57 52.32021 4.74285 -2 ft 18 kts 301°
2026-04-27 16:57 52.32035 4.74076 -3 ft 20 kts 273°
2026-04-27 16:58 52.32047 4.73759 -2 ft 22 kts 274°
2026-04-27 16:58 52.32056 4.73501 -2 ft 24 kts 274°
2026-04-27 16:58 52.32101 4.73338 -2 ft 24 kts 313°
2026-04-27 16:58 52.32229 4.73159 -2 ft 25 kts 320°
2026-04-27 16:59 52.32361 4.72973 -2 ft 26 kts 319°
2026-04-27 16:59 52.32500 4.72777 -2 ft 27 kts 320°
2026-04-27 16:59 52.32643 4.72576 -2 ft 26 kts 317°
2026-04-27 16:59 52.32770 4.72350 -2 ft 28 kts 310°
2026-04-27 17:00 52.32989 4.71945 -2 ft 29 kts 311°
2026-04-27 17:00 52.33142 4.71633 -2 ft 23 kts 286°
2026-04-27 17:00 52.33073 4.71413 -2 ft 24 kts 221°
2026-04-27 17:01 52.32942 4.71230 -2 ft 26 kts 220°
2026-04-27 17:01 52.32862 4.71016 -3 ft 23 kts 272°
2026-04-27 17:01 52.32959 4.70900 -4 ft 7 kts
2026-04-27 17:01 52.32989 4.70903 -4 ft 20 kts
2026-04-27 17:02 52.33375 4.70938 -4 ft 94 kts
2026-04-27 17:02 52.34275 4.71022 54 ft 155 kts 359°
2026-04-27 17:02 52.35476 4.71025 518 ft 191 kts
2026-04-27 17:02 52.36857 4.71090 1391 ft 208 kts
2026-04-27 17:03 52.38439 4.71253 1847 ft 240 kts
2026-04-27 17:03 52.40125 4.71515 2869 ft 246 kts
2026-04-27 17:03 52.41876 4.71859 3669 ft 262 kts 15°
2026-04-27 17:03 52.43545 4.73098 4773 ft 264 kts 27°
2026-04-27 17:04 52.45158 4.74569 5883 ft 266 kts 27°
2026-04-27 17:04 52.46727 4.76133 6881 ft 270 kts 36°
2026-04-27 17:04 52.47895 4.78576 7801 ft 278 kts 64°
2026-04-27 17:04 52.48316 4.81711 8691 ft 284 kts 82°
2026-04-27 17:05 52.48487 4.84983 9559 ft 290 kts 84°
2026-04-27 17:05 52.48575 4.88319 10401 ft 297 kts 90°
2026-04-27 17:05 52.48033 4.91659 10787 ft 320 kts 119°
2026-04-27 17:05 52.46501 4.94363 11468 ft 329 kts 142°
2026-04-27 17:06 52.44616 4.96544 12357 ft 333 kts 146°
2026-04-27 17:06 52.42692 4.98704 13282 ft 337 kts 146°
2026-04-27 17:06 52.40765 5.00929 14226 ft 342 kts 145°
2026-04-27 17:06 52.38809 5.03197 15086 ft 347 kts 146°
2026-04-27 17:07 52.36809 5.05487 15957 ft 352 kts 146°
2026-04-27 17:07 52.34798 5.07751 16786 ft 358 kts 145°
2026-04-27 17:07 52.32985 5.10574 17562 ft 365 kts 124°
2026-04-27 17:07 52.31868 5.14325 18417 ft 369 kts 111°
2026-04-27 17:08 52.30954 5.18299 19158 ft 375 kts 110°
2026-04-27 17:08 52.30033 5.22316 19880 ft 380 kts 110°
2026-04-27 17:08 52.29076 5.26380 20609 ft 385 kts 110°
2026-04-27 17:08 52.28099 5.30478 21281 ft 391 kts 111°
2026-04-27 17:09 52.27103 5.34643 21925 ft 396 kts 111°
2026-04-27 17:09 52.26099 5.38843 22559 ft 400 kts 111°
2026-04-27 17:09 52.25080 5.43103 23186 ft 405 kts 111°
2026-04-27 17:09 52.24051 5.47413 23816 ft 410 kts 111°
2026-04-27 17:10 52.23009 5.51770 24379 ft 414 kts 111°
2026-04-27 17:10 52.21960 5.56152 24962 ft 417 kts 111°
2026-04-27 17:10 52.20897 5.60592 25535 ft 421 kts 111°
2026-04-27 17:10 52.19828 5.65061 26093 ft 425 kts 111°
2026-04-27 17:11 52.18751 5.69570 26632 ft 429 kts 111°
2026-04-27 17:11 52.16570 5.78702 27647 ft 436 kts 111°
2026-04-27 17:11 52.15478 5.83273 28125 ft 439 kts 111°
2026-04-27 17:12 52.13241 5.92633 29078 ft 446 kts 111°
2026-04-27 17:12 52.12112 5.97356 29524 ft 449 kts 111°
2026-04-27 17:12 52.10971 6.02125 29971 ft 453 kts 111°
2026-04-27 17:13 52.09842 6.06926 30375 ft 456 kts 108°
2026-04-27 17:13 52.09097 6.11946 30715 ft 457 kts 98°
2026-04-27 17:13 52.08598 6.17057 31068 ft 459 kts 97°
2026-04-27 17:13 52.08087 6.22193 31408 ft 462 kts 98°
2026-04-27 17:14 52.07563 6.27362 31724 ft 464 kts 98°
2026-04-27 17:14 52.07027 6.32554 32028 ft 467 kts 98°
2026-04-27 17:14 52.06490 6.37714 32308 ft 469 kts 98°
2026-04-27 17:14 52.05941 6.42939 32622 ft 470 kts 98°
2026-04-27 17:15 52.05387 6.48169 33010 ft 469 kts 98°
2026-04-27 17:15 52.04832 6.53385 33400 ft 468 kts 98°
2026-04-27 17:15 52.04274 6.58598 33770 ft 468 kts 98°
2026-04-27 17:15 52.03715 6.63803 34121 ft 468 kts 98°
2026-04-27 17:16 52.03153 6.69006 34457 ft 467 kts 98°
2026-04-27 17:16 52.02590 6.74199 34806 ft 466 kts 98°
2026-04-27 17:16 52.01996 6.79363 35155 ft 465 kts 102°
2026-04-27 17:16 52.01192 6.84450 35485 ft 464 kts 104°
2026-04-27 17:17 52.00355 6.89526 35814 ft 463 kts 104°
2026-04-27 17:17 51.99545 6.94515 36140 ft 462 kts 103°
2026-04-27 17:17 51.98734 6.99582 36463 ft 462 kts 103°
2026-04-27 17:18 51.97118 7.09649 37082 ft 460 kts 103°
2026-04-27 17:18 51.96285 7.14638 37352 ft 461 kts 105°
2026-04-27 17:18 51.94381 7.24745 37345 ft 474 kts 106°
2026-04-27 17:19 51.93420 7.29845 37208 ft 480 kts 106°
2026-04-27 17:19 51.92448 7.35033 37229 ft 482 kts 106°
2026-04-27 17:19 51.90500 7.45449 37220 ft 484 kts 106°
2026-04-27 17:20 51.88544 7.55868 37222 ft 484 kts 106°
2026-04-27 17:20 51.86575 7.66304 37212 ft 484 kts 106°
2026-04-27 17:21 51.85382 7.76956 37237 ft 481 kts 92°
2026-04-27 17:21 51.85026 7.87702 37207 ft 482 kts 91°
2026-04-27 17:22 51.84632 7.98525 37212 ft 482 kts 92°
2026-04-27 17:22 51.84201 8.09342 37207 ft 483 kts 92°
2026-04-27 17:23 51.83755 8.20188 37215 ft 483 kts 92°
2026-04-27 17:23 51.83299 8.31040 37210 ft 484 kts 92°
2026-04-27 17:24 51.82834 8.41829 37214 ft 483 kts 92°
2026-04-27 17:24 51.82358 8.52696 37203 ft 484 kts 92°
2026-04-27 17:25 51.81870 8.63553 37212 ft 484 kts 93°
2026-04-27 17:25 51.81376 8.74357 37210 ft 484 kts 93°
2026-04-27 17:26 51.80869 8.85215 37218 ft 484 kts 93°
2026-04-27 17:26 51.80352 8.96077 37213 ft 485 kts 94°
2026-04-27 17:27 51.79824 9.06942 37225 ft 485 kts 93°
2026-04-27 17:27 51.79290 9.17827 37213 ft 485 kts 94°
2026-04-27 17:28 51.78747 9.28699 37219 ft 485 kts 94°
2026-04-27 17:29 51.77923 9.44976 37220 ft 486 kts 94°
2026-04-27 17:29 51.77354 9.55875 37216 ft 486 kts 94°
2026-04-27 17:30 51.76779 9.66759 37212 ft 487 kts 94°
2026-04-27 17:30 51.75895 9.83125 37238 ft 494 kts 95°
2026-04-27 17:31 51.75281 9.94229 37227 ft 497 kts 95°
2026-04-27 17:31 51.74658 10.05289 37209 ft 496 kts 95°
2026-04-27 17:32 51.73698 10.21953 37230 ft 496 kts 95°
2026-04-27 17:33 51.73050 10.33060 37219 ft 496 kts 95°
2026-04-27 17:33 51.72397 10.44071 37207 ft 496 kts 95°
2026-04-27 17:34 51.71729 10.55159 37214 ft 496 kts 95°
2026-04-27 17:34 51.71050 10.66248 37210 ft 495 kts 95°
2026-04-27 17:35 51.70362 10.77237 37220 ft 495 kts 95°
2026-04-27 17:35 51.69669 10.88314 37228 ft 495 kts 95°
2026-04-27 17:36 51.68951 10.99363 37215 ft 495 kts 95°
2026-04-27 17:36 51.68227 11.10413 37210 ft 495 kts 95°
2026-04-27 17:37 51.67496 11.21387 37219 ft 495 kts 96°
2026-04-27 17:37 51.66755 11.32441 37217 ft 495 kts 96°
2026-04-27 17:38 51.65998 11.43458 37212 ft 495 kts 96°
2026-04-27 17:38 51.65236 11.54504 37216 ft 495 kts 96°
2026-04-27 17:39 51.64465 11.65517 37220 ft 495 kts 96°
2026-04-27 17:39 51.63686 11.76482 37218 ft 495 kts 96°
2026-04-27 17:40 51.62885 11.87510 37222 ft 495 kts 96°
2026-04-27 17:40 51.62086 11.98523 37219 ft 495 kts 96°
2026-04-27 17:41 51.61274 12.09523 37218 ft 495 kts 96°
2026-04-27 17:41 51.60445 12.20464 37214 ft 495 kts 96°
2026-04-27 17:42 51.59754 12.29619 37215 ft 495 kts 96°
2026-04-27 17:42 51.58918 12.40617 37215 ft 495 kts 96°
2026-04-27 17:43 51.57922 12.53393 37215 ft 495 kts 96°
2026-04-27 17:43 51.57200 12.62602 37218 ft 495 kts 96°
2026-04-27 17:44 51.56329 12.73515 37217 ft 495 kts 96°
2026-04-27 17:44 51.55348 12.84464 37219 ft 495 kts 99°
2026-04-27 17:45 51.54191 12.95377 37212 ft 495 kts 98°
2026-04-27 17:45 51.53176 13.06331 37212 ft 495 kts 97°
2026-04-27 17:46 51.52197 13.17221 37210 ft 495 kts 97°
2026-04-27 17:46 51.51206 13.28164 37209 ft 495 kts 97°
2026-04-27 17:47 51.50207 13.39090 37213 ft 495 kts 97°
2026-04-27 17:47 51.49196 13.50024 37211 ft 495 kts 97°
2026-04-27 17:48 51.48182 13.60881 37209 ft 495 kts 97°
2026-04-27 17:48 51.47152 13.71793 37210 ft 495 kts 97°
2026-04-27 17:49 51.46113 13.82694 37210 ft 495 kts 97°
2026-04-27 17:49 51.45365 13.93656 37223 ft 494 kts 92°
2026-04-27 17:50 51.44935 14.04635 37210 ft 493 kts 92°
2026-04-27 17:50 51.44235 14.21116 37212 ft 493 kts 92°
2026-04-27 17:51 51.43993 14.26594 37057 ft 491 kts 92°
2026-04-27 17:51 51.43750 14.32006 36668 ft 479 kts 92°
2026-04-27 17:51 51.43510 14.37272 36080 ft 472 kts 92°
2026-04-27 17:51 51.43272 14.42499 35477 ft 468 kts 92°
2026-04-27 17:52 51.43032 14.47704 34805 ft 469 kts 92°
2026-04-27 17:52 51.42793 14.52876 34218 ft 476 kts 92°
2026-04-27 17:52 51.42544 14.58208 33556 ft 482 kts 92°
2026-04-27 17:52 51.42288 14.63606 32905 ft 494 kts 92°
2026-04-27 17:53 51.42023 14.69148 32254 ft 501 kts 93°
2026-04-27 17:53 51.41753 14.74737 31573 ft 504 kts 93°
2026-04-27 17:53 51.41479 14.80338 30907 ft 505 kts 93°
2026-04-27 17:53 51.41202 14.85951 30217 ft 505 kts 93°
2026-04-27 17:54 51.40923 14.91553 29578 ft 503 kts 93°
2026-04-27 17:54 51.40520 14.97055 29299 ft 502 kts 100°
2026-04-27 17:54 51.39745 15.02535 29187 ft 506 kts 104°
2026-04-27 17:54 51.38842 15.07992 29203 ft 506 kts 104°
2026-04-27 17:55 51.37935 15.13451 29045 ft 508 kts 104°
2026-04-27 17:55 51.37040 15.18903 28670 ft 498 kts 104°
2026-04-27 17:55 51.36165 15.24291 28524 ft 501 kts 104°
2026-04-27 17:55 51.35291 15.29679 28452 ft 501 kts 104°
2026-04-27 17:56 51.34415 15.35068 28048 ft 500 kts 104°
2026-04-27 17:56 51.33542 15.40418 27635 ft 494 kts 104°
2026-04-27 17:56 51.32683 15.45667 27198 ft 490 kts 104°
2026-04-27 17:56 51.31824 15.50905 26778 ft 486 kts 104°
2026-04-27 17:57 51.30967 15.56108 26367 ft 482 kts 104°
2026-04-27 17:57 51.30115 15.61274 25927 ft 478 kts 104°
2026-04-27 17:57 51.29265 15.66409 25487 ft 475 kts 104°
2026-04-27 17:57 51.28423 15.71483 25101 ft 470 kts 104°
2026-04-27 17:58 51.27582 15.76530 24695 ft 467 kts 104°
2026-04-27 17:58 51.26750 15.81513 24280 ft 464 kts 104°
2026-04-27 17:58 51.25921 15.86462 23884 ft 460 kts 104°
2026-04-27 17:58 51.25105 15.91322 23440 ft 456 kts 104°
2026-04-27 17:59 51.24285 15.96194 22972 ft 452 kts 104°
2026-04-27 17:59 51.23308 16.00958 22515 ft 450 kts 110°
2026-04-27 17:59 51.22112 16.05552 22072 ft 447 kts 112°
2026-04-27 17:59 51.20904 16.10100 21614 ft 443 kts 112°
2026-04-27 18:00 51.19716 16.14621 21167 ft 440 kts 112°
2026-04-27 18:00 51.18534 16.19121 20733 ft 437 kts 112°
2026-04-27 18:00 51.17379 16.23528 20312 ft 434 kts 112°
2026-04-27 18:00 51.16219 16.27955 19887 ft 431 kts 112°
2026-04-27 18:01 51.15068 16.32345 19470 ft 428 kts 112°
2026-04-27 18:01 51.13922 16.36715 19062 ft 426 kts 112°
2026-04-27 18:01 51.12779 16.41067 18660 ft 423 kts 112°
2026-04-27 18:01 51.11646 16.45374 18157 ft 421 kts 112°
2026-04-27 18:02 51.10519 16.49648 17612 ft 417 kts 112°
2026-04-27 18:02 51.09415 16.53827 17099 ft 414 kts 112°
2026-04-27 18:02 51.08315 16.58046 16568 ft 410 kts 110°
2026-04-27 18:02 51.07389 16.62315 16063 ft 407 kts 107°
2026-04-27 18:03 51.06497 16.66563 15562 ft 404 kts 107°
2026-04-27 18:03 51.05590 16.70771 15065 ft 400 kts 109°
2026-04-27 18:03 51.04454 16.74766 15178 ft 399 kts 116°
2026-04-27 18:03 51.03192 16.78694 15186 ft 400 kts 116°
2026-04-27 18:04 51.01960 16.82611 15202 ft 401 kts 115°
2026-04-27 18:04 51.00709 16.86636 15200 ft 402 kts 115°
2026-04-27 18:04 50.99510 16.90496 15055 ft 387 kts 115°
2026-04-27 18:04 50.98327 16.94323 14671 ft 389 kts 115°
2026-04-27 18:05 50.97138 16.98171 14137 ft 385 kts 115°
2026-04-27 18:05 50.95971 17.01950 13471 ft 376 kts 115°
2026-04-27 18:05 50.94844 17.05590 12791 ft 357 kts 115°
2026-04-27 18:05 50.93774 17.09047 12140 ft 340 kts 115°
2026-04-27 18:06 50.92768 17.12294 11501 ft 325 kts 114°
2026-04-27 18:06 50.91785 17.15463 10886 ft 318 kts 114°
2026-04-27 18:06 50.90806 17.18619 10280 ft 317 kts 114°
2026-04-27 18:06 50.89849 17.21692 9620 ft 304 kts 114°
2026-04-27 18:07 50.88931 17.24640 8944 ft 293 kts 115°
2026-04-27 18:07 50.88042 17.27489 8286 ft 284 kts 115°
2026-04-27 18:07 50.87183 17.30232 7649 ft 278 kts 115°
2026-04-27 18:07 50.86342 17.32953 7013 ft 271 kts 110°
2026-04-27 18:08 50.86029 17.35791 6369 ft 259 kts 79°
2026-04-27 18:08 50.86713 17.38297 5736 ft 245 kts 46°
2026-04-27 18:08 50.88095 17.39647 5431 ft 220 kts 14°
2026-04-27 18:08 50.89433 17.40372 6294 ft 194 kts 18°
2026-04-27 18:09 50.90761 17.41217 6088 ft 216 kts 19°
2026-04-27 18:09 50.92178 17.42089 5624 ft 220 kts 13°
2026-04-27 18:09 50.93687 17.42252 5210 ft 215 kts 349°
2026-04-27 18:09 50.95050 17.41322 4686 ft 218 kts 320°
2026-04-27 18:10 50.95885 17.39397 4451 ft 210 kts 289°
2026-04-27 18:10 50.96108 17.37083 4141 ft 215 kts 274°
2026-04-27 18:10 50.96128 17.34734 4025 ft 213 kts 272°
2026-04-27 18:10 50.96255 17.32373 3882 ft 216 kts 281°
2026-04-27 18:11 50.96718 17.30148 3684 ft 216 kts 296°
2026-04-27 18:11 50.97464 17.28111 3643 ft 208 kts 312°
2026-04-27 18:11 50.98410 17.26428 4091 ft 212 kts 309°
2026-04-27 18:11 50.99185 17.24411 4090 ft 218 kts 296°
2026-04-27 18:12 50.99798 17.22202 3907 ft 218 kts 294°
2026-04-27 18:12 51.00402 17.19998 3642 ft 217 kts 295°
2026-04-27 18:12 51.01032 17.17861 3366 ft 209 kts 297°
2026-04-27 18:12 51.01680 17.15881 3242 ft 195 kts 299°
2026-04-27 18:13 51.02309 17.14086 3182 ft 178 kts 300°
2026-04-27 18:13 51.02876 17.12421 3114 ft 165 kts 298°
2026-04-27 18:13 51.03368 17.10850 3022 ft 148 kts 296°
2026-04-27 18:13 51.03769 17.09447 2914 ft 139 kts 295°
2026-04-27 18:14 51.04176 17.08059 2692 ft 137 kts 298°
2026-04-27 18:14 51.04603 17.06715 2490 ft 136 kts 298°
2026-04-27 18:14 51.05030 17.05369 2253 ft 136 kts 298°
2026-04-27 18:14 51.05462 17.04046 2012 ft 134 kts 299°
2026-04-27 18:15 51.05880 17.02743 1797 ft 129 kts 298°
2026-04-27 18:15 51.06277 17.01474 1686 ft 128 kts 298°
2026-04-27 18:15 51.06684 17.00204 1630 ft 129 kts 298°
2026-04-27 18:15 51.07083 16.98932 1626 ft 131 kts 297°
2026-04-27 18:16 51.07477 16.97609 1575 ft 133 kts 297°
2026-04-27 18:16 51.07880 16.96268 1419 ft 135 kts 296°
2026-04-27 18:16 51.08302 16.94924 1214 ft 135 kts 298°
2026-04-27 18:16 51.08721 16.93592 980 ft 134 kts 297°
2026-04-27 18:17 51.09132 16.92260 768 ft 134 kts 297°
2026-04-27 18:17 51.09532 16.90961 600 ft 132 kts 296°
2026-04-27 18:17 51.09940 16.89644 417 ft 133 kts 297°
2026-04-27 18:17 51.10301 16.88473 405 ft 96 kts 295°
2026-04-27 18:18 51.10508 16.87800 401 ft 37 kts 296°
2026-04-27 18:18 51.10595 16.87516 401 ft 27 kts 296°
2026-04-27 18:18 51.10667 16.87289 401 ft 16 kts 300°
2026-04-27 18:18 51.10760 16.87278 399 ft 16 kts 26°
2026-04-27 18:19 51.10869 16.87360 402 ft 19 kts 25°
2026-04-27 18:19 51.10947 16.87441 402 ft 10 kts 68°
2026-04-27 18:19 51.10924 16.87552 399 ft 12 kts 116°
2026-04-27 18:19 51.10883 16.87684 402 ft 14 kts 115°
2026-04-27 18:20 51.10926 16.87772 398 ft 4 kts 26°